Regional Weather Roundup
Issued by NWS Midland/Odessa, TX

Skip options and go directly to product.
Home | Oldest Version | Previous Version | Current Version | All | Graphics & Text | Save Text | Print | Product List | Glossary On

Skip product version selection by date and time.   
458
ASUS44 KMAF 010410
RWRMAF
MIDLAND AREA WEATHER ROUNDUP
NATIONAL WEATHER SERVICE MIDLAND TX
1100 PM CDT FRI OCT 31 2014

...IN SOUTHWEST TEXAS AND SOUTHEAST NEW MEXICO...

CITY           SKY/WX    TMP DP  RH WIND       PRES   REMARKS
ALPINE         CLEAR     50  34  53 SW5       30.38F
ANDREWS        FAIR      49  32  51 E7        30.35R
ARTESIA        NOT AVBL
BIG SPRING     PTCLDY    54  32  43 E12       30.37S
CARLSBAD       PTCLDY    52  36  54 S8        30.30R
DRYDEN           N/A     57  33  40 NE7       30.29R
FORT STOCKTON  CLEAR     59  30  33 SE9       30.30S
GUAD PASS      PTCLDY    52  28  39 NE30      30.34F
HOBBS          CLEAR     48  32  53 E9        30.35S
MARFA          CLEAR     46  36  66 N3        30.35S
MIDLAND AIRPK  PTCLDY    55  32  41 E7        30.34S
MIDLAND INTL   PTCLDY    56  31  38 E12       30.33F
ODESSA         PTCLDY    55  29  36 E12       30.34R
PECOS          CLEAR     53  32  44 E6        30.30S
PRESIDIO       FAIR      67  37  34 NE15G23   30.23R
SEMINOLE       PTCLDY    46  34  61 E5        30.36S
SNYDER         CLEAR     48  33  55 E6        30.37S
WINK           CLEAR     57  30  35 E7        30.30R
$$
...OTHER STATIONS IN TEXAS...

CITY           SKY/WX    TMP DP  RH WIND       PRES   REMARKS
ABILENE        CLEAR     52  34  50 E7        30.37S
AMARILLO       CLEAR     44  27  51 SE13      30.34S WCI  38
AUSTIN         PTCLDY    58  42  55 N13       30.32R
BROWNSVILLE    CLEAR     65  58  78 NW3       30.23R
CORPUS CHRISTI CLEAR     66  47  50 NE13      30.26R
DALLAS FTW     PTCLDY    52  33  48 NE12      30.36R
DEL RIO        CLEAR     64  42  44 E6        30.27R
EL PASO        MOCLDY    63  34  33 E7        30.21R
HOUSTON INT    CLEAR     58  45  62 N6        30.27R
LUBBOCK        PTCLDY    43  32  65 E8        30.36R WCI  38
SAN ANGELO     CLEAR     50  31  48 E3        30.34R
SAN ANTONIO    PTCLDY    61  42  49 N6        30.31R
WACO           CLEAR     49  39  68 N6        30.34R
WICHITA FALLS  NOT AVBL
$$
...OTHER LOCATIONS IN NEW MEXICO...

CITY           SKY/WX    TMP DP  RH WIND       PRES   REMARKS
ALAMAGORDO     NOT AVBL
ALBUQUERQUE    MOCLDY    59  33  37 E5        30.25R
CANNON AFB     NOT AVBL
CLOVIS         CLEAR     46  30  53 S15       30.35S
HOLLOMAN AFB   MOCLDY    63  39  41 S14       30.21S
ROSWELL        CLEAR     49  36  61 SW5       30.31R
RUIDOSO        PTCLDY    43  32  65 SE8       30.40S WCI  38
SANTA FE       MOCLDY    50  29  44 SE9       30.31R
TRUTH OR CONSE MOCLDY    61  38  42 S10       30.23S
TUCUMCARI      PTCLDY    53  31  42 S10       30.28S
$$

USA.gov is the U.S. government's official web portal to all federal, state and local government web resources and services.